COSMOS 2251 DEB, 34750

Orbit data source: Space-Track

COSMOS 2251 DEB, 34750 is space debris in LEO originally from a launch on Wed, 16 Jun 1993 UTC launched from the Plesetsk Missile And Space Complex (PKMTR). The debris from Iridium 33, an American commercial communications satellite, has been tracked extensively since its accidental collision with the defunct Russian satellite Cosmos 2251 in 2009. This event, occurring at high speed in low Earth orbit (LEO), generated thousands of pieces of space debris, significantly increasing the risk of further collisions. The Iridium 33 debris cloud has impacted space traffic management and orbital debris mitigation strategies, making it a subject of ongoing study in space situational awareness.

Loading next visibility...
Identifier
34750, 1993-036ZU
Orbit
LEO
Country
Flag of CISCIS
Related business
Manufacturer
Unknown
Mission
Spacecraft
Bus & Motor
Unknown
Mass
Unknown
Launch date (UTC)
1993-06-16 (33 years ago)
Launch vehicle
Unknown
Launch site
Plesetsk Missile And Space Complex (PKMTR)
Object type
Payload
Rocket body
Debris
Shape & HBR
Unknown shape, 0.1 m
Radar Cross Section
Small (<0.1 m²)

Expand to show TLE details & history
Last TLE update: 10 hours ago

TLE from 10 hours ago
0 COSMOS 2251 DEB
1 34750U 93036ZU  26062.38218104  .00008321  00000-0  16311-2 0  9991
2 34750  74.1067  48.0815 0038786 332.5549 177.9510 14.62405535894090
Epoch: 2026-03-03T09:10Z
TLE epoch observation values (Epoch: 2026-03-03T09:10:20.441Z)
Latitude
28.29852°
Longitude
-79.43642°
Altitude
716.003 km
Speed
7.486 km/s
True Right ascension
14h 37m 14s
True Declination
28° 09' 16"
Sunlit
Object was in full shadow at epoch
Visualization orbit readout
Latitude
Unknown
Longitude
Unknown
Altitude
Unknown
Speed
Unknown
Apparent Right ascension
Unknown
Apparent Declination
Unknown
Sunlit
N/A
Visualization observer readout
Local Sidereal Time
23:01:14
Azimuth
Unknown
Elevation
Unknown
Doppler factor
Unknown
Orbital elements
Apogee altitude
710.393 km
Perigee altitude
655.619 km
Semi-major axis
7,061.143 km
Eccentricity
0.00388
Inclination
74.1067°
RAAN
48.0815°
Arg. of periapsis
332.5549°
True anomaly
177.96681°
Mean anomaly
177.951°
Eccentric anomaly
177.95891°
Mean motion
3.65789 °/min
Orbital period
98.42 mins
BSTAR
0.0016311
Loading maneuver chart data...
Computing Atmospheric mass density...

Documentation

Showing up to 5 results
|